STARLINK-1895 (47175 NORAD) Tracking and Keplerian Element Data
This shows tracking and keplerian element data for the satellite.
Feedback or suggestion? Click here.
Element | Value |
Catalog | 47175 |
Name | STARLINK-1895 |
Epoch Orbit | 176 |
Epoch Day | 62.91667824 |
Epoch Year | 2021 |
RAAN | 229.8347 |
Inclination | 53.0516 |
Eccentricity | 0.000136 |
Argument of Perigee | 70.2547 |
Mean Anonmoly | 47.8775 |
Mean Motion | 15.44247501 |
Decay Rate | -0.00391867 |
L1 | 1 47175U 20088BF 21062.91667824 -.00391867 00000-0 -88165-2 0 9992 |
L2 | 2 47175 53.0516 229.8347 0001360 70.2547 47.8775 15.44247501 1761 |
Live tracking and technical data element details for STARLINK-1895 (NORAD 47175). STARLINK-1895 can be tracked NOW for your location showing map with azimuth and elevation plus other details from your city location.
Track the satellite on the map from your city or location and see movement details for azimuth, elevation, latitude, longitude, range, height, and movement on the map or in text.
IsCatalogInMostPopularTable: catalog: 47175, numindb: 38
Update: records affected: 1
GetName: 47175 STARLINK-1895
Hit Count: updated at: Fri, 05 Mar 2021 06:16:32 GMT